This demonstration page uses our WeatherBlox Daily Observations layout. Learn more.

Left ArrowRight Arrow

40.92945, -100.16068

Hourly Observations for February 6, 2015

Temp ( °F °C ) Dew Point ( °F °C ) Humidity (%) Winds ( mph kmh ) Pressure ( in mb ) Visibility ( mi km ) Precip ( " mm )
12:15 am 00:15 Clear 41 5 31 -0.5 68 68 SW 6 9 30.03 1017 10 16 N/A
12:35 am 00:35 Clear 40 4.2 31 -0.7 71 71 SSW 3 6 30.03 1017 10 16 N/A
12:55 am 00:55 Clear 40 4.7 31 -0.8 68 68 Calm 30.03 1017 10 16 N/A
1:15 am 01:15 Clear 40 4.4 31 -0.8 69 69 WSW 9 15 30.03 1017 10 16 N/A
1:35 am 01:35 Clear 36 2.2 30 -1.2 78 78 WNW 5 7 30.03 1017 10 16 N/A
1:55 am 01:55 Clear 36 2.4 30 -1.1 78 78 WSW 3 6 30.03 1017 10 16 N/A
2:15 am 02:15 Clear 33 0.3 28 -2.4 82 82 Calm 30.06 1018 10 16 N/A
2:35 am 02:35 Clear 35 1.5 29 -1.6 80 80 W 6 9 30.03 1017 10 16 N/A
2:55 am 02:55 Clear 33 0.8 29 -1.6 84 84 W 5 7 30.03 1017 10 16 N/A
3:15 am 03:15 Clear 34 1.1 29 -1.5 83 83 WSW 3 6 30.03 1017 10 16 N/A
3:35 am 03:35 Clear 34 1.3 30 -1.3 83 83 WSW 6 9 30.03 1017 10 16 N/A
3:55 am 03:55 Clear 34 1.2 29 -1.6 82 82 WSW 6 9 30.03 1017 10 16 N/A
4:15 am 04:15 Clear 34 0.9 29 -1.5 84 84 WSW 7 11 30.03 1017 10 16 N/A
4:35 am 04:35 Clear 34 1.1 29 -1.5 83 83 W 6 9 30.03 1017 10 16 N/A
4:55 am 04:55 Clear 32 0.2 29 -1.8 87 87 W 7 11 30.00 1016 10 16 N/A
5:15 am 05:15 Clear 31 -0.6 28 -2.4 88 88 WNW 6 9 30.03 1017 10 16 N/A
5:35 am 05:35 Clear 31 -0.7 28 -2.5 88 88 WNW 6 9 30.06 1018 10 16 N/A
5:55 am 05:55 Clear 30 -1 27 -2.6 89 89 WNW 6 9 30.06 1018 10 16 N/A
6:15 am 06:15 Clear 30 -0.9 28 -2.3 90 90 NW 9 15 30.03 1017 10 16 N/A
6:35 am 06:35 Clear 31 -0.7 27 -2.6 87 87 WNW 7 11 30.03 1017 10 16 N/A
6:55 am 06:55 Clear 31 -0.4 28 -2.3 87 87 WNW 9 15 30.00 1016 10 16 N/A
7:15 am 07:15 Clear 31 -0.4 28 -2.4 87 87 W 9 15 30.00 1016 10 16 N/A
7:35 am 07:35 Clear 31 -0.3 28 -2.3 87 87 WNW 8 13 30.06 1018 10 16 N/A
7:55 am 07:55 Sunny 32 -0.1 28 -2 87 87 WNW 7 11 30.06 1018 10 16 N/A
8:15 am 08:15 Sunny 32 0.1 29 -1.7 88 88 WNW 8 13 30.06 1018 10 16 N/A
8:35 am 08:35 Sunny 33 0.8 29 -1.4 85 85 WNW 8 13 30.03 1017 10 16 N/A
8:55 am 08:55 Sunny 35 1.5 31 -0.8 85 85 W 9 15 30.03 1017 10 16 N/A
9:15 am 09:15 Sunny 37 2.5 31 -0.5 81 81 WNW 10 17 30.03 1017 10 16 N/A
9:35 am 09:35 Sunny 37 2.7 32 -0.1 82 82 NW 7 11 30.03 1017 10 16 N/A
9:55 am 09:55 Sunny 38 3.3 32 0.1 80 80 W 7 11 30.03 1017 10 16 N/A
10:15 am 10:15 Sunny 40 4.2 33 0.3 76 76 WNW 8 13 30.00 1016 10 16 N/A
10:35 am 10:35 Sunny 42 5.3 34 1 74 74 WNW 12 19 30.00 1016 10 16 N/A
10:55 am 10:55 Sunny 42 5.5 33 0.8 72 72 W 9 15 30.03 1017 10 16 N/A
11:15 am 11:15 Sunny 44 6.5 34 0.9 68 68 WNW 12 19 30.00 1016 10 16 N/A
11:35 am 11:35 Sunny 47 8.1 35 1.8 65 65 WNW 7 11 30.00 1016 10 16 N/A
11:55 am 11:55 Sunny 50 9.9 36 2.2 59 59 W 10 17 29.97 1015 10 16 N/A
12:15 pm 12:15 Sunny 51 10.4 36 2.1 57 57 WNW 9 15 29.97 1015 10 16 N/A
12:35 pm 12:35 Sunny 51 10.6 37 2.6 58 58 NW 7 11 29.94 1014 10 16 N/A
12:55 pm 12:55 Sunny 51 10.3 37 2.5 59 59 WNW 8 13 29.94 1014 10 16 N/A
1:15 pm 13:15 Sunny 52 11.2 37 3 57 57 WNW 7 11 29.94 1014 10 16 N/A
1:35 pm 13:35 Sunny 54 12.1 38 3.3 55 55 WNW 8 13 29.91 1013 10 16 N/A
1:55 pm 13:55 Sunny 56 13.1 38 3.6 53 53 WNW 6 9 29.88 1012 10 16 N/A
2:15 pm 14:15 Sunny 58 14.2 39 3.9 50 50 W 6 9 29.88 1012 10 16 N/A
2:35 pm 14:35 Sunny 59 14.9 37 2.8 44 44 W 9 15 29.88 1012 10 16 N/A
2:55 pm 14:55 Sunny 59 15.2 37 3 44 44 W 7 11 29.88 1012 10 16 N/A
3:15 pm 15:15 Sunny 60 15.8 38 3.3 43 43 WNW 7 11 29.85 1011 10 16 N/A
3:35 pm 15:35 Sunny 60 15.7 39 3.7 45 45 WNW 6 9 29.85 1011 10 16 N/A
3:55 pm 15:55 Sunny 61 16.2 38 3.5 43 43 WNW 6 9 29.85 1011 10 16 N/A
4:15 pm 16:15 Sunny 61 16.1 41 4.9 48 48 WNW 3 6 29.83 1010 10 16 N/A
4:35 pm 16:35 Sunny 61 16 40 4.3 46 46 Calm 29.83 1010 10 16 N/A
4:55 pm 16:55 Sunny 61 16.1 38 3.6 43 43 Calm 29.83 1010 10 16 N/A
5:15 pm 17:15 Sunny 58 14.3 39 3.9 50 50 Calm 29.85 1011 10 16 N/A
5:35 pm 17:35 Sunny 54 12.3 39 4.1 58 58 Calm 29.83 1010 10 16 N/A
5:55 pm 17:55 Sunny 53 11.7 39 3.7 58 58 Calm 29.85 1011 10 16 N/A
6:15 pm 18:15 Clear 49 9.5 39 3.9 68 68 Calm 29.88 1012 10 16 N/A
6:35 pm 18:35 Clear 46 7.9 38 3.5 74 74 Calm 29.88 1012 10 16 N/A
6:55 pm 18:55 Clear 41 5.2 35 1.9 79 79 Calm 29.91 1013 10 16 N/A
7:15 pm 19:15 Clear 41 5.1 35 1.4 77 77 Calm 29.91 1013 10 16 N/A
7:35 pm 19:35 Clear 43 6.1 37 3 81 81 Calm 29.88 1012 10 16 N/A
7:55 pm 19:55 Clear 39 4.1 35 1.4 83 83 Calm 29.91 1013 10 16 N/A
8:15 pm 20:15 Clear 43 6.2 35 1.7 73 73 S 5 7 29.85 1011 10 16 N/A
8:35 pm 20:35 Clear 44 6.7 31 -0.7 60 60 S 7 11 29.85 1011 10 16 N/A
8:55 pm 20:55 Clear 43 5.9 31 -0.8 62 62 SSW 10 17 29.85 1011 10 16 N/A
9:15 pm 21:15 Clear 42 5.4 30 -1.3 62 62 Calm 29.88 1012 10 16 N/A
9:35 pm 21:35 Clear 42 5.6 31 -0.3 66 66 SSE 3 6 29.85 1011 10 16 N/A
9:55 pm 21:55 Clear 45 7.3 29 -1.8 53 53 S 9 15 29.85 1011 10 16 N/A
10:15 pm 22:15 Clear 45 7.1 29 -1.8 54 54 S 7 11 29.85 1011 10 16 N/A
10:35 pm 22:35 Clear 46 7.7 28 -2.1 50 50 Calm 29.80 1009 10 16 N/A
10:55 pm 22:55 Clear 41 5 29 -1.9 61 61 Calm 29.83 1010 10 16 N/A
11:15 pm 23:15 Clear 45 7.3 30 -1.1 56 56 Calm 29.83 1010 10 16 N/A
11:35 pm 23:35 Clear 50 9.8 31 -0.8 48 48 SSW 9 15 29.77 1008 10 16 N/A
11:55 pm 23:55 Clear 48 8.8 31 -0.6 52 52 SW 5 7 29.77 1008 10 16 N/A

Powered by AerisWeather